Simultaneous Nadir Overpasses (SNOs) Predictions

Prediction of SNOs between GOES-16 and NPP Satellite Orbit:

Table of predicted SNOs for the next 14.0 days since TLE Epoch: 2/24/2017
Index Date Time (GOES-16) GOES-16 Lat,Lon NPP Lat,Lon Distance(km) Time Diff (sec)
1 02/25/2017 07:41:59 -0.03, -89.48 0.95, -93.78 489.84 80
2 02/26/2017 07:20:33 -0.03, -89.48 -0.06, -89.24 27.07 80
3 02/28/2017 19:23:44 0.02, -89.50 -0.09, -90.02 58.55 80
4 03/01/2017 19:07:39 0.02, -89.50 0.92, -85.48 458.58 80
5 03/03/2017 07:29:25 -0.02, -89.50 0.26, -90.74 141.80 80
6 03/04/2017 07:08:00 -0.02, -89.50 -0.74, -86.21 375.11 80
7 03/05/2017 19:29:55 0.02, -89.52 -0.46, -91.51 227.51 80
8 03/06/2017 19:13:50 0.01, -89.52 0.61, -86.98 289.96 80
9 03/08/2017 07:35:36 0.00, -89.52 0.63, -92.23 309.31 80
10 03/09/2017 07:14:10 0.00, -89.53 -0.38, -87.70 208.09 80




NCC Satellite Simultaneous Nadir Overpasses (SNOs) Prediction Service
